Home > Weather > Panama City > Past weeks

Flag for USA Past Weather in Panama City, Florida, USA — Yesterday and Last 2 Weeks

Now
79 °F

Clear.


Feels Like: 82 °F
Forecast: 77 / 90 °F
Wind: 5 mph from Northeast

Location: Tyndall Air Force Base

Current Time: Aug 25, 2016 at 1:37:58 AM

Latest Report: Aug 25, 2016 at 12:56 AM


Visibility: 10 mi

Pressure: 30.11 "Hg

Humidity: 84%

Dew Point: 74 °F

Location of Panama CityLocation

Past Weather in Panama City — Graph

°F

Panama City Temperature Yesterday

Maximum temperature yesterday: 91 °F (at 12:56 PM)
Minimum temperature yesterday: 76 °F (at 2:56 AM)
Average temperature yesterday: 80 °F

High & Low Weather Summary for the Past Weeks

 TemperatureHumidityPressure
High92 °F (Aug 23, 12:56 PM)98% (Aug 16, 10:56 PM)30.21 "Hg (Aug 16, 10:56 PM)
Low74 °F (Aug 15, 5:56 AM)54% (Aug 15, 12:56 PM)29.93 "Hg (Aug 10, 3:04 AM)
Average82 °F82%30.07 "Hg
* Reported Aug 9 11:56 PM — Aug 24 11:56 PM, Panama City, Weather by CustomWeather, © 2016

Note: Actual official high and low records may vary slightly from our data, if they occured in-between our weather recording intervals... More about our weather records

Advertising

Panama City Weather History for the Previous 24 Hours

Scroll right to see more
 ConditionsComfort  
Time TempWeatherWind HumidityBarometerVisibility
11:56 PM
Wed, Aug 24
78 °FClear.5 mph89%30.11 "Hg10 mi
10:56 PM78 °FClear.5 mph94%30.13 "Hg10 mi
9:56 PM79 °FClear.2 mph95%30.14 "Hg10 mi
8:56 PM79 °FPassing clouds.5 mph96%30.15 "Hg10 mi
7:56 PM79 °FClear.No wind95%30.12 "Hg10 mi
6:56 PM80 °FSunny.3 mph91%30.11 "Hg10 mi
5:56 PM80 °FSunny.3 mph89%30.11 "Hg10 mi
4:56 PM79 °FSunny.6 mph90%30.11 "Hg10 mi
4:02 PM77 °FLight rain. Partly sunny.5 mph94%30.10 "Hg10 mi
3:56 PM77 °FThunderstorms. Fog.7 mph91%30.12 "Hg6 mi
2:56 PM82 °FStrong thunderstorms. Partly sunny.8 mph85%30.15 "Hg2 mi
1:56 PM91 °FThunderstorms. Scattered clouds.5 mph56%30.15 "Hg10 mi
12:56 PM91 °FScattered clouds.9 mph58%30.16 "Hg10 mi
11:56 AM89 °FScattered clouds.10 mph64%30.17 "Hg10 mi
10:56 AM88 °FScattered clouds.6 mph73%30.19 "Hg10 mi
9:56 AM85 °FPassing clouds.9 mph79%30.19 "Hg10 mi
8:56 AM82 °FScattered clouds.7 mph85%30.19 "Hg10 mi
7:56 AM78 °FPartly sunny.8 mph93%30.19 "Hg10 mi
6:56 AM77 °FSunny.8 mph93%30.17 "Hg10 mi
5:56 AM76 °FClear.6 mph93%30.16 "Hg10 mi
4:56 AM76 °FClear.6 mph92%30.15 "Hg10 mi
3:56 AM77 °FClear.6 mph90%30.14 "Hg10 mi
2:56 AM76 °FClear.5 mph92%30.13 "Hg10 mi
1:56 AM77 °FClear.7 mph91%30.14 "Hg10 mi
Weather by CustomWeather, © 2016

See weather overviewHow to use our weather pages